Flag for Cuba Weather past 2 weeks in Holguín, Cuba

77 °F

Passing clouds.

Feels Like: 78 °F
Forecast: 74 / 91 °F
Wind: 5 mph from Northeast

Location: Holguin Civ / Mil

Current Time: Oct 13, 2015 at 11:23:24 PM

Latest Report: Oct 13, 2015 at 10:50 PM

Visibility: 5 mi

Pressure: 29.98 "Hg

Humidity: 89%

Dew point: 73 °F

Location of HolguínLocation

Historic Weather in Holguín — Graph


Holguín temperature yesterday

Maximum temperature yesterday: 91 °F (at 3:50 PM)
Minimum temperature yesterday: 72 °F (at 1:50 AM)
Average temperature yesterday: 77 °F

Past Weeks' High & Low Weather Summary

High95 °F (Oct 8, 2:50 PM)100% (Oct 4, 2:51 AM)30.01 "Hg (Oct 4, 2:51 AM)
Low72 °F (Sep 29, 4:51 AM)41% (Oct 8, 2:50 PM)29.53 "Hg (Oct 1, 3:50 PM)
Average79 °F79%29.85 "Hg
* Reported Sep 28 9:50 PM — Oct 13 9:50 PM, Holguín, Weather by CustomWeather, © 2015

Note: Actual official high and low records may vary slightly from our data, if they occured in-between our weather recording intervals... More about our weather records


Holguín weather history for previous 24 hours

Time TempWeatherWind HumidityBarometerVisibility
9:50 PM
Tue, Oct 13
77 °FPassing clouds.5 mph94%29.98 "Hg5 mi
8:50 PM77 °FMostly cloudy.6 mph94%29.98 "Hg5 mi
7:52 PM79 °FMostly cloudy.5 mph89%29.95 "Hg5 mi
6:50 PM77 °FLight rain. More clouds than sun.3 mph94%29.95 "Hg4 mi
5:50 PM77 °FLight rain. More clouds than sun.6 mph94%29.92 "Hg4 mi
4:51 PM75 °FLight rain. Broken clouds.6 mph89%N/A4 mi
3:50 PM84 °FBroken clouds.9 mph62%29.92 "Hg6 mi
2:53 PM84 °FScattered showers. Partly sunny.12 mph66%29.92 "Hg5 mi
1:55 PM90 °FPartly sunny.3 mph59%29.95 "Hg6 mi
12:51 PM86 °FBroken clouds.2 mph75%29.98 "Hg6 mi
11:50 AM84 °FBroken clouds.2 mph79%30.01 "Hg6 mi
10:50 AM81 °FBroken clouds.3 mph84%30.01 "Hg6 mi
9:50 AM79 °FBroken clouds.3 mph84%30.01 "Hg6 mi
8:50 AM75 °FPartly sunny.3 mph89%29.98 "Hg6 mi
7:50 AM73 °FFog.1 mph89%29.98 "Hg5 mi
6:51 AM73 °FFog.7 mph89%29.95 "Hg4 mi
5:50 AM73 °FFog.5 mph89%29.92 "Hg3 mi
4:51 AM72 °FFog.3 mph94%29.92 "Hg4 mi
3:51 AM72 °FFog.5 mph94%29.92 "Hg4 mi
2:50 AM73 °FPassing clouds.5 mph89%29.92 "Hg5 mi
1:58 AM73 °FPassing clouds.6 mph89%29.95 "Hg5 mi
12:50 AM72 °FPassing clouds.3 mph94%29.95 "Hg5 mi
11:50 PM
Mon, Oct 12
72 °FPassing clouds.3 mph94%29.98 "Hg6 mi
Weather by CustomWeather, © 2015

See weather overviewHow to use our weather pages